Location: Hylvaty SDH
(49.9612°N, 16.4057°E)
Time: 18:19:02
(UTC+02:00)

Transit 4A - Pass Details

Date: 09 August 2020
Orbit: 862 x 982 km, 66.8° (Epoch: 28 September)

Event Time Altitude Azimuth Distance (km) Brightness Sun altitude
Rises 14:26:23 0° 296° (WNW) 3,573 11.0 51.5°
Reaches altitude 10° 14:29:55 10° 316° (NW) 2,655 10.3 51.1°
Maximum altitude 14:33:49 17° 356° (N) 2,220 9.8 50.7°
Drops below altitude 10° 14:37:46 10° 35° (NE) 2,705 10.1 50.4°
Sets 14:41:26 0° 55° (NE) 3,670 10.6 50.0°
